sat.trackr.live / text

‹ back to catalog

2026-027A

NORAD 67746 · 2026-027A

PAYLOAD ACTIVE UNKNOWN

§ Identity

Operator
Country
PRC
Launch date
2026-02-12
Launch site
SCSLA
Launch vehicle
Mass (kg)
RCS (m²)

External: N2YO · Heavens-Above · Gunter

§ Orbital elements

Epoch: 2026-09-20T14:54:00.274464Z

Period
94.73 min
Inclination
97.5176°
Eccentricity
0.0008514
Mean motion
15.20094839 rev/d
Perigee alt
499.7 km
Apogee alt
511.4 km
Semi-major
6,883.7 km
B*
2.1598e-4
RAAN
31.3202°
Arg perigee
236.9183°
Mean anomaly
123.1235°
Rev number
3,345

§ Raw data

2026-027A1 67746U 26027A   26263.62083651  .00004598  00000+0  21598-3 0  99902 67746  97.5176  31.3202 0008514 236.9183 123.1235 15.20094839 33451

JSON: /api/v1/satellites/67746 · /tle

For live sub-satellite position, see the globe view (requires WebGL).

§ Visibility from observer

Set your observer location to see the next 7 days of passes ≥ 10°. The values pass through the URL so the page stays shareable.

No JS? Fill the form by hand. The geolocation button needs JavaScript.